Location: Bharthala
(30.5692°N, 76.0795°E)
Time: 12:04:05
(UTC+00:00)

Daily predictions for brighter satellites

Satellite Brightness Start Highest point End
(mag) Time Altitude Azimuth Time Altitude Azimuth Time Altitude Azimuth
Meteor 1-26 Rocket 4.1 13:54:57 10° N 14:00:25 77° E 14:05:48 10° SSE
Cosmos 2218 Rocket 4.1 13:57:58 10° S 14:04:08 89° W 14:10:18 10° N
Cosmos 1140 Rocket 4.1 13:59:35 10° SSE 14:04:16 34° E 14:08:59 10° NE
Cosmos 1151 Rocket 3.8 14:02:07 10° NNW 14:06:18 55° W 14:10:29 10° S
FREGAT/IRIS 4.4 14:06:17 10° E 14:07:31 12° ENE 14:08:44 10° NE
NOSS 3-2 (A) 3.7 14:03:55 10° S 14:08:49 36° ESE 14:14:07 10° NE
ATLAS 5 CENTAUR R/B 2.8 14:09:12 10° NNW 14:15:10 52° ENE 14:21:54 10° SE
MOS 1 Rocket 3.6 14:10:03 10° NNE 14:15:26 82° ESE 14:20:34 10° S
NOSS 3-2 (C) 4.2 14:13:55 10° SSE 14:18:08 23° ESE 14:22:35 10° ENE
Cosmos 1515 Rocket 3.8 14:16:05 10° N 14:20:33 77° W 14:24:59 10° S
Cosmos 1980 Rocket 4.1 14:20:46 10° NNE 14:23:09 13° ENE 14:25:31 10° E
USA 267 3.6 14:17:55 10° ENE 14:24:01 41° SE 14:30:06 10° SSW
FUSE 4.5 14:19:12 10° WSW 14:24:21 47° S 14:28:42 14° ESE
Cosmos 614 Rocket 4.3 14:20:41 10° SSW 14:25:47 70° WNW 14:30:58 10° N
Cosmos 1833 Rocket 3.0 14:20:32 10° SSW 14:26:06 74° WNW 14:31:44 10° NNE
Cosmos 1656 3.8 14:22:25 10° N 14:27:49 54° ENE 14:33:07 11° SE
CZ-2C R/B 3.6 14:29:00 10° S 14:33:45 55° W 14:38:24 10° NNW
H-2A R/B 2.4 14:30:26 10° S 14:35:35 68° WSW 14:40:37 10° NNW
Cosmos 1697 Rocket 3.5 14:32:00 10° N 14:37:02 33° ENE 14:40:23 18° ESE
CZ-2C R/B 4.1 14:34:45 10° NNE 14:38:58 37° E 14:43:05 10° SSE
Cosmos 1727 Rocket 4.0 14:32:56 10° N 14:39:18 78° E 14:45:36 10° S
OBJECT-B 2.2 14:40:31 20° E 14:41:02 21° ENE 14:43:34 10° NNE
IRS-1A Rocket 4.3 14:35:30 10° SSE 14:41:05 68° ENE 14:46:47 10° N
Cosmos 2228 Rocket 3.0 14:38:37 10° N 14:43:02 87° W 14:47:24 10° S
SL-8 R/B 3.8 14:38:41 10° NW 14:43:31 70° NE 14:46:32 22° ESE
Sich 1 3.0 14:39:09 10° S 14:43:33 72° E 14:47:59 10° N
USA 186 0.8 14:42:42 23° S 14:43:56 84° W 14:46:10 10° NNW
Cosmos 1862 4.1 14:42:14 10° SSW 14:46:12 55° W 14:50:11 10° N
SJ-6B 2.9 14:43:07 14° SSE 14:46:27 62° ENE 14:50:25 10° N
Cosmos 676 Rocket 4.0 14:47:08 10° S 14:52:22 64° ESE 14:57:39 10° NNE
Cosmos 1821 Rocket 3.9 14:47:41 10° S 14:53:48 88° E 15:00:02 10° N
Cosmos 1184 Rocket 3.9 14:54:48 27° ENE 14:54:48 27° ENE 14:57:08 10° NNE
Resurs 01 Rocket 2.8 14:55:04 23° E 14:55:46 24° ENE 14:59:18 10° NNE
VEP-3 3.9 14:50:40 10° WSW 14:55:50 38° S 15:02:03 20° SE
Meteor 1-27 Rocket 4.1 14:51:42 10° N 14:57:26 49° E 15:00:51 23° SE
Cosmos 972 4.4 14:53:57 10° N 14:58:50 61° ENE 15:01:25 26° SSE
IRIDIUM 104 4.4 14:54:05 10° S 14:59:17 80° W 15:04:31 10° N
Meteor 1-4 Rocket 4.0 14:56:50 10° NNE 14:58:51 20° ENE 14:58:51 20° ENE
SPOT 3 Rocket 3.9 14:59:50 27° SE 15:02:14 46° ENE 15:07:11 10° N
Meteor 1-10 Rocket 4.3 14:56:32 10° N 15:02:18 87° W 15:08:03 10° S
Shenzhou-11 Module 3.4 15:01:54 10° NNW 15:03:30 20° NNE 15:03:30 20° NNE
BREEZE-M DEB (TANK) 3.3 15:01:00 10° WNW 15:05:40 32° WSW 15:06:46 23° SSW
Cosmos 1812 2.7 15:03:32 10° N 15:07:23 82° W 15:09:22 27° S
USA 238 DEB 3.8 15:00:53 10° SSW 15:07:25 76° WNW 15:14:11 10° NNE
USA 238 3.8 15:01:01 10° SSW 15:07:32 77° WNW 15:14:17 10° NNE
Cosmos 389 Rocket 3.1 15:05:56 10° NNW 15:09:20 54° W 15:11:20 22° SSW
GP-B 4.4 15:09:43 10° NNE 15:12:32 25° ENE 15:12:32 25° ENE
CZ-3A R/B 4.2 14:35:24 10° W 15:14:37 63° SSW 15:20:48 29° SE
Cosmos 1666 Rocket 3.8 15:13:37 10° SSW 15:17:53 67° W 15:22:12 10° N
Cosmos 1535 Rocket 4.3 15:12:38 10° S 15:18:46 77° E 15:24:53 10° N
CENTAUR R/B 2.1 15:13:26 10° SSW 15:18:52 75° ESE 15:25:15 10° NNE
Cosmos 1954 Rocket 4.4 15:16:54 10° SSW 15:22:10 64° WNW 15:27:27 10° N
Yuri Rocket 3.1 15:18:13 10° WSW 15:22:21 50° S 15:22:21 50° S
Cosmos 2360 4.2 15:17:57 10° NNW 15:23:40 66° ENE 15:25:22 44° SE
Cosmos 1000 Rocket 4.5 15:18:45 10° N 15:24:58 81° W 15:29:17 21° S
Cosmos 1741 Rocket 4.4 15:27:10 43° E 15:27:10 43° E 15:31:36 10° NNE
Cosmos 2123 Rocket 4.0 15:20:42 10° N 15:26:52 60° E 15:28:51 41° SE
Ariane Rocket 4.3 15:22:28 10° SSW 15:27:06 37° W 15:31:46 10° NNW
Cosmos 1605 Rocket 3.9 15:25:29 36° SSE 15:27:49 58° E 15:33:46 10° NNE
SL-16 R/B 4.2 15:26:19 10° NNE 15:28:39 13° NE 15:28:39 13° NE
Meteor 1-25 Rocket 4.1 15:27:57 40° SSE 15:29:54 65° E 15:35:26 10° NNE
Cosmos 2082 Rocket 3.8 15:24:45 10° SW 15:29:54 35° WNW 15:35:04 10° N
Resurs 1-3 3.6 15:28:51 50° S 15:29:56 80° WSW 15:34:21 10° NNW
Skynet4D Del rocket 3.7 15:26:08 10° W 15:31:20 55° S 15:32:06 51° SSE
CZ-2C R/B 4.4 15:27:03 10° N 15:31:36 32° WNW 15:36:12 10° SW
ATLAS 5 CENTAUR R/B4.415:49:35E15:49:35E15:26:18SSW
Intercosmos 25 3.9 15:32:09 10° NNW 15:35:16 41° W 15:35:28 41° WSW
Cosmos 2369 3.8 15:33:29 10° NNW 15:39:12 74° WSW 15:41:01 44° S
Cosmos 2278 3.5 15:40:44 10° NNW 15:46:27 82° ENE 15:47:09 69° SE
Cosmos 2322 Rocket 4.2 15:44:32 10° NNE 15:47:04 15° NE 15:47:04 15° NE
Lacrosse 5 3.9 15:44:52 10° N 15:47:51 15° NE 15:48:05 15° NE
BREEZE-M TANK 3.8 15:39:05 10° SW 15:57:15 76° SE 15:58:42 53° ENE
ATLAS 5 CENTAUR R/B 4.3 15:54:40 10° WNW 15:59:43 25° WSW 16:03:48 15° SSW
USA 267 4.3 16:00:48 10° NNE 16:06:55 44° NW 16:13:02 10° WSW
Cosmos 1980 Rocket 2.2 16:02:02 10° NNW 16:07:40 72° WSW 16:07:42 72° WSW
Cosmos 921 Rocket 4.5 16:05:05 10° N 16:07:19 31° N 16:07:19 31° N
OBJECT-B 4.0 16:13:44 12° W 16:13:44 12° W 16:14:42 10° WNW
Cosmos 1153 Rocket 4.3 16:15:27 85° NNW 16:15:27 85° NNW 16:21:27 10° N
Cosmos 1697 Rocket 4.4 16:16:16 10° NW 16:20:45 25° WSW 16:22:09 22° SW
SPOT 1/Viking Rocket 4.4 16:23:48 46° N 16:23:48 46° N 16:27:26 10° N
Resurs 01 Rocket 3.7 16:32:38 22° W 16:32:38 22° W 16:35:34 10° NW
ATLAS 3B R/B 3.1 16:40:25 53° N 16:40:25 53° N 16:45:24 10° NNE
SL-16 R/B 3.8 17:07:42 10° NNW 17:10:30 30° NNW 17:10:30 30° NNW
Terra 4.4 17:22:19 16° NNW 17:22:19 16° NNW 17:23:21 10° NNW
Lacrosse 5 4.5 17:26:14 10° NW 17:27:15 16° NW 17:27:15 16° NW
Cosmos 2322 Rocket 4.2 17:26:35 10° NNW 17:28:52 25° NW 17:28:52 25° NW
Cosmos 2360 Rocket 4.4 17:37:20 10° NNW 17:39:09 21° NNW 17:39:09 21° NNW
CZ-2D R/B 4.3 20:23:47 10° NNE 20:25:39 22° NNE 20:25:39 22° NNE
USA 215 4.4 20:35:03 10° NE 20:39:02 36° ENE 20:39:02 36° ENE
SL-16 R/B 3.9 21:07:51 30° NNW 21:07:51 30° NNW 21:10:51 10° NNW
Cosmos 2263 Rocket 3.7 21:07:49 29° N 21:07:49 29° N 21:10:34 10° N
Resurs 1-4 Rocket 4.2 21:01:44 10° N 21:03:23 19° NNW 21:03:23 19° NNW
ATLAS CENTAUR R/B 4.1 21:22:28 16° NNE 21:22:28 16° NNE 21:23:23 10° NNE
IDEFIX/ARIANE 42P 4.1 21:15:32 10° NE 21:19:42 29° E 21:19:42 29° E
Aurora 2 Rocket 4.4 21:25:15 58° SSE 21:25:15 58° SSE 21:34:25 10° E
Cosmos 1844 Rocket 3.7 21:29:03 38° E 21:29:03 38° E 21:33:51 10° NE
OAO 3 Rocket 4.4 21:37:44 40° NE 21:37:44 40° NE 21:41:20 10° E
BREEZE-M DEB (TANK) 4.2 21:39:07 51° NNE 21:39:07 51° NNE 21:46:33 10° NE
ADEOS II 3.3 21:35:36 10° N 21:38:42 33° NNW 21:38:42 33° NNW
ATLAS 3B CENTAUR R/B 3.7 21:25:50 10° W 21:43:49 67° SSW 21:51:28 10° ESE
Spot 4 Rocket 4.3 21:44:57 10° NNE 21:49:50 63° E 21:49:50 63° E
Cosmos 1603 4.5 21:45:01 10° NNW 21:48:45 42° NNW 21:48:45 42° NNW
Meteor 2-16 Rocket 4.4 21:54:31 10° N 22:00:42 86° E 22:02:06 57° SSE
SL-08 R/B 3.5 22:02:47 67° NNW 22:02:47 67° NNW 22:07:03 10° NNW
Meteor 2-21 Rocket 4.2 21:56:29 10° N 22:02:33 75° W 22:02:47 74° WSW
Aureole 3 4.3 22:04:10 65° SSE 22:05:04 81° E 22:11:42 10° N
Cosmos 1606 Rocket 4.0 22:10:45 57° N 22:10:45 57° N 22:14:22 10° N
Cosmos 1943 3.6 22:04:57 10° NNW 22:09:09 48° NW 22:09:09 48° NW
ARIANE 5 R/B 3.0 22:06:06 10° N 22:10:32 48° NW 22:10:32 48° NW
CZ-2D R/B 4.5 22:10:37 10° N 22:13:06 36° NNW 22:13:06 36° NNW
Atlas Centaur 2 2.5 22:16:24 53° WSW 22:18:10 86° S 22:26:00 10° E
Cosmos 1553 Rocket 4.0 22:20:39 52° WSW 22:21:13 54° W 22:27:11 10° N
COSMOS 2441 4.4 22:17:48 10° NNE 22:22:37 74° ESE 22:23:56 48° S
Delta 7925 Rocket 4.5 22:21:39 43° SW 22:24:03 59° S 22:30:42 10° E
USA 215 4.1 22:18:19 10° NNE 22:24:10 36° NW 22:26:23 29° WNW
Meteosat 1 Rocket2 4.2 22:23:05 44° SSW 22:24:12 48° SSE 22:29:06 10° E
SeaSat 1 3.3 22:19:44 10° NE 22:24:27 45° ESE 22:26:44 27° SSE
Cosmos 1726 Rocket 3.6 22:25:20 65° WNW 22:25:20 65° WNW 22:29:32 10° N
Centaur AC-72 3.7 22:25:40 30° S 22:26:00 30° S 22:32:53 10° ESE
MSX 3.7 22:22:09 10° NNE 22:27:56 85° WNW 22:30:11 40° SSW
Cosmos 494 Rocket 4.3 22:24:13 10° N 22:29:22 67° ENE 22:34:32 10° SSE
Cosmos 2228 3.9 22:32:56 35° NW 22:32:56 35° NW 22:36:14 10° N
PSLV R/B 4.1 22:30:12 10° NNE 22:34:28 54° E 22:36:42 26° SSE
Cosmos 1745 Rocket 3.9 22:34:53 10° N 22:41:08 81° W 22:47:17 10° S
NOSS 2-2 (D) 4.1 22:45:02 31° NW 22:45:02 31° NW 22:48:02 10° N
Cosmos 1844 4.0 22:44:49 37° WSW 22:46:40 50° WNW 22:52:17 10° N
Hubble Space Telescope 0.8 22:46:51 54° SW 22:47:30 63° S 22:51:35 10° E
CZ-2C R/B 2.5 22:43:12 10° NNE 22:47:49 67° ESE 22:51:34 16° S
Meteor 2-15 4.5 22:46:37 30° SW 22:49:26 56° W 22:55:23 10° N
S3M 4.4 22:49:56 31° SW 22:52:19 43° W 22:58:22 10° N
SL-08 ROCKET BODY 4.4 22:49:00 10° NNW 22:54:50 55° W 23:00:02 13° SSW
PAYLOAD A 3.9 22:52:30 10° N 22:57:43 79° WNW 23:01:25 18° SSW
IDEFIX/ARIANE 42P 3.6 22:55:11 10° NNW 22:59:25 26° WNW 23:00:31 24° W
ADEOS 4.1 22:56:26 10° NNE 23:01:34 59° E 23:06:42 10° S
CZ-4B R/B 3.5 23:00:33 10° SE 23:03:23 28° ENE 23:06:11 10° NNE
Cosmos 2278 Rocket 2.9 23:02:55 10° S 23:08:24 53° ESE 23:13:53 10° NNE
Cosmos 2058 Rocket 3.8 23:07:13 27° WSW 23:08:32 33° W 23:12:34 10° NNW
Cosmos 1174 3.9 23:08:38 20° SSW 23:11:07 77° ESE 23:15:43 10° NNE
H-2A R/B 2.3 23:08:45 15° SSW 23:11:52 41° W 23:15:45 10° NNW
Cosmos 1844 Rocket 4.0 23:10:44 19° W 23:12:40 22° WNW 23:16:58 10° N
OAO 2 Rocket 4.0 23:08:48 15° WNW 23:13:00 52° N 23:18:07 10° ENE
CZ-2C R/B 4.5 23:13:06 10° NNW 23:15:23 16° WNW 23:15:29 16° WNW
Chandra Rocket (1) 4.4 23:08:42 15° SW 23:15:29 28° S 23:19:27 10° ESE
Cosmos 1400 Rocket 3.7 23:11:47 10° S 23:15:32 48° E 23:19:17 10° NNE
Delta 2 Rocket 3.8 23:12:54 13° WNW 23:15:48 49° NNE 23:19:33 10° E
Cosmos 1455 2.8 23:13:15 10° S 23:17:02 60° E 23:20:51 10° NNE
Cosmos 1300 4.3 23:20:00 17° W 23:20:12 17° WNW 23:22:44 10° NW
OAO 3 Rocket 3.3 23:15:33 11° WNW 23:20:20 86° NNE 23:25:17 10° ESE
Cosmos 1709 Rocket 3.9 23:14:57 10° N 23:21:03 69° W 23:27:05 10° S
ALOS 3.1 23:18:19 10° NNE 23:22:53 52° E 23:27:25 10° S
Lacrosse 5 rocket 1.5 23:22:17 17° SW 23:25:45 80° NW 23:30:22 10° NE
SJ-6F 4.4 23:24:27 10° N 23:28:36 67° WNW 23:32:44 10° SSW
ERS-2 2.9 23:25:48 10° SSW 23:28:59 29° W 23:32:12 10° NW
Landsat 5 4.4 23:26:52 12° SSW 23:29:40 25° W 23:33:01 10° NW
Meteor 2-10 Rocket 3.5 23:32:01 10° SSW 23:37:08 71° W 23:42:29 10° N
Cosmos 1269 Rocket 4.3 23:32:54 10° NNW 23:37:55 44° WSW 23:42:54 10° S
Cosmos 2058 2.9 23:38:58 10° N 23:43:10 78° W 23:47:21 10° S
SAR-Lupe-4 3.5 23:40:10 10° S 23:43:41 61° WSW 23:47:14 10° NNW
Cosmos-2242 3.6 23:40:21 10° S 23:44:39 62° E 23:48:59 10° NNE
NOSS 3-4 (A) 3.5 23:39:15 10° SSW 23:45:06 78° ESE 23:51:09 10° NNE
NOSS 3-4 (C) 3.5 23:39:23 10° SSW 23:45:14 76° ESE 23:51:17 10° NNE
USA 281 3.6 23:39:46 10° N 23:45:57 45° WNW 23:52:07 10° SW
